[Date Prev][Date Next][Thread Prev][Thread Next] - [Date Index][Thread Index][Author Index]
2 Line ISS Keps 8-20
- Subject: [sarex] 2 Line ISS Keps 8-20
- From: "Dr Dave Larsen" <doc@xxxxxxxxxxx>
- Date: Sat, 20 Aug 2005 03:38:34 -0700
ISS
1 25544U 98067A 05232.13113012 .00013713 00000-0 10782-3 0 1813
2 25544 051.6455 293.5413 0000964 320.2473 127.0490 15.71829994385740
----
Via the sarex mailing list at AMSAT.ORG courtesy of AMSAT-NA.
To unsubscribe, send "unsubscribe sarex" to Majordomo@amsat.org
AMSAT Home